Home   Weather   Chinle   Past weeks
Flag for USA

Past Weather in Chinle, Arizona, USA — Yesterday and Last 2 Weeks

Now
51 °F

Passing clouds.


Feels Like: 46 °F
Forecast: 55 / 29 °F
Wind: 16 mph from West

Location: Window Rock Airport

Current Time: Oct 20, 2019 at 6:16:29 am

Latest Report: Oct 20, 2019 at 4:53 am


Visibility: 10 mi

Pressure: 29.64 "Hg (24.22 "Hg at 1678m altitude)

Humidity: 20%

Dew Point: 11 °F

Location of ChinleLocation

Past Weather in Chinle — Graph

°F

Chinle Temperature Yesterday

Maximum temperature yesterday: 64 °F (at 2:53 pm)
Minimum temperature yesterday: 20 °F (at 6:53 am)
Average temperature yesterday: 44 °F

High & Low Weather Summary for the Past Weeks

 TemperatureHumidityPressure
High76 °F (Oct 7, 2:53 pm)79% (Oct 18, 8:53 am)30.38 "Hg (Oct 18, 8:53 am)
Low13 °F (Oct 11, 6:53 am)7% (Oct 5, 2:53 pm)29.57 "Hg (Oct 9, 3:53 pm)
Average49 °F31%29.96 "Hg
* Reported Oct 5 4:53 am — Oct 20 4:53 am, Chinle. Weather by CustomWeather, © 2019

Note: Actual official high and low records may vary slightly from our data, if they occured in-between our weather recording intervals... More about our weather records

Advertising

Chinle Weather History for the Previous 24 Hours

Scroll right to see more
 ConditionsComfort  
Time TempWeatherWind HumidityBarometerVisibility
4:53 am
Sun, Oct 20
51 °FPassing clouds.16 mph20%29.64 "Hg10 mi
3:53 am50 °FPassing clouds.12 mph24%29.65 "Hg10 mi
2:53 am50 °FClear.10 mph25%29.66 "Hg10 mi
1:53 am51 °FPassing clouds.13 mph25%29.67 "Hg10 mi
12:53 am50 °FClear.12 mph27%29.67 "Hg10 mi
11:53 pm
Sat, Oct 19
51 °FClear.9 mph27%29.70 "Hg10 mi
10:53 pm48 °FClear.No wind20%29.75 "Hg10 mi
9:53 pm44 °FClear.No wind21%29.81 "Hg10 mi
8:53 pm47 °FClear.5 mph18%29.84 "Hg10 mi
7:53 pm50 °FClear.7 mph16%29.89 "Hg10 mi
6:53 pm56 °FClear.3 mph13%29.87 "Hg10 mi
5:53 pm62 °FSunny.16 mph11%29.85 "Hg10 mi
4:53 pm64 °FSunny.16 mph9%29.85 "Hg10 mi
3:53 pm64 °FSunny.10 mph9%29.85 "Hg10 mi
2:53 pm64 °FSunny.13 mph8%29.86 "Hg10 mi
1:53 pm63 °FSunny.9 mph11%29.85 "Hg10 mi
12:53 pm63 °FSunny.9 mph9%29.89 "Hg10 mi
11:53 am60 °FSunny.7 mph14%29.91 "Hg10 mi
10:53 am53 °FSunny.No wind18%29.98 "Hg10 mi
9:53 am43 °FSunny.No wind27%30.00 "Hg10 mi
8:53 am30 °FSunny.No wind49%30.02 "Hg10 mi
7:53 am20 °FSunny.No wind68%30.04 "Hg10 mi
6:53 am20 °FClear.No wind65%30.01 "Hg10 mi
Weather by CustomWeather, © 2019

See weather overview